Wind_Speed
71 72 72 73 73 74 75 75 76 76 77 78 78 79 80 80 81 81 82 82 82 83 83 83 83 84 84 84 85 85 86 86 86 86 86 86 86 85 85 84 84 83 83 82 82 83 83 84 85 85 85 84 84 82 81 80 79 79 79 80 80 80 80 81 81 81 81 81 81 80 80 80 80 80 79 79 79 81 82 83 83 83 82 81 81 80
71 71 72 72 73 73 74 75 76 76 77 78 78 79 80 80 81 81 82 82 83 83 83 84 84 84 84 85 85 86 86 87 87 87 87 87 87 86 86 85 85 84 83 82 82 81 81 82 83 83 84 84 84 83 82 81 79 79 78 79 79 79 80 80 81 81 81 81 81 80 80 79 79 78 78 78 79 81 83 84 85 84 83 82 81 80
71 72 72 73 73 74 74 75 76 77 77 78 79 79 80 80 81 82 82 83 84 84 84 84 85 85 85 86 86 86 87 87 88 88 88 88 88 87 87 87 86 85 85 83 82 81 81 81 81 82 82 83 83 83 83 82 80 79 78 78 78 78 79 79 80 81 81 81 81 80 80 79 78 78 78 78 79 82 84 85 85 85 85 83 82 81
72 72 73 73 74 74 75 76 76 77 78 78 79 80 80 81 81 82 83 83 84 85 85 85 86 86 86 86 87 87 87 88 88 88 89 89 89 88 88 88 88 87 87 86 85 83 82 81 80 80 81 81 82 83 83 82 81 80 78 78 77 77 78 78 79 80 81 81 81 80 80 79 78 78 77 78 79 82 84 85 86 86 86 85 83 82
73 73 74 74 74 75 76 76 77 78 78 79 79 80 81 81 82 82 83 84 84 85 86 86 86 87 87 87 87 88 88 89 89 89 89 89 89 89 89 89 89 89 89 88 87 86 85 83 81 80 80 80 81 82 82 83 82 81 80 78 77 77 77 77 78 80 81 81 81 81 80 79 78 78 77 78 79 82 84 85 86 86 86 86 85 83
74 74 74 75 75 76 76 77 77 78 79 79 80 80 81 81 82 82 83 84 85 85 86 86 87 87 88 88 88 88 89 89 89 89 90 90 90 90 90 90 90 90 90 90 90 89 88 87 84 82 81 80 80 80 81 82 82 82 81 79 78 77 76 77 77 78 80 81 82 81 80 79 78 78 78 78 79 81 84 85 85 86 86 87 86 85
74 74 75 75 75 76 76 77 78 79 79 80 80 80 81 81 82 83 83 84 85 85 86 86 87 87 88 88 88 89 89 89 89 90 90 90 90 90 90 90 90 90 90 90 91 91 91 90 88 86 84 82 81 80 81 81 82 82 82 81 79 78 77 76 76 77 79 80 81 82 81 80 79 78 78 78 79 81 83 84 85 86 86 87 87 86
74 74 75 75 76 76 77 78 78 79 80 80 80 81 81 82 82 83 84 84 85 85 86 86 86 87 87 88 88 89 89 89 89 89 89 89 89 89 90 90 90 90 90 90 91 91 92 92 91 90 88 85 83 81 81 81 82 82 82 82 81 79 77 76 76 77 78 79 81 81 81 80 79 78 78 79 80 81 83 84 85 86 86 86 87 87
74 75 75 76 76 77 78 79 80 80 80 81 81 82 82 82 83 83 84 84 85 85 86 86 86 86 87 87 88 88 88 88 89 89 89 89 89 89 89 90 90 90 90 91 91 91 92 93 93 93 92 89 87 84 82 82 82 82 82 82 82 80 79 77 76 76 77 78 80 81 82 81 80 79 79 79 80 81 82 84 85 85 85 86 86 87
75 76 76 77 78 78 79 80 81 81 81 82 82 83 83 83 84 84 84 85 85 85 86 86 86 86 86 87 87 88 88 88 88 88 88 88 89 89 89 90 90 91 91 91 91 91 92 92 93 94 94 93 90 88 85 83 82 82 83 83 82 81 80 78 77 77 77 78 79 81 81 81 81 80 79 79 80 81 82 83 84 85 84 85 85 86
76 77 78 78 79 80 81 81 82 82 83 83 84 84 84 84 85 85 85 85 86 86 86 86 86 86 86 87 87 87 88 88 88 88 88 89 89 89 90 90 91 91 91 91 92 92 92 92 93 94 95 95 93 91 88 86 84 83 83 83 83 82 81 80 78 77 77 77 78 80 81 82 82 81 80 80 80 81 82 83 84 84 84 84 85 86
78 78 79 80 81 81 82 83 83 84 84 85 86 86 86 85 85 86 86 86 86 86 86 86 86 86 86 86 87 87 88 88 89 89 89 89 89 90 90 91 91 91 92 92 92 92 93 93 93 94 95 96 95 94 91 88 86 84 84 83 83 83 83 81 80 78 78 77 78 79 81 82 82 82 81 81 81 81 82 82 83 83 83 84 85 86
79 80 80 81 82 83 84 84 85 85 86 86 87 87 87 87 86 87 87 87 87 86 86 86 86 85 85 86 87 88 88 89 90 90 90 90 90 90 91 91 92 92 92 93 93 93 93 94 94 94 95 96 97 96 94 91 88 86 85 84 84 84 84 83 82 80 79 78 78 79 81 82 83 82 82 81 81 81 81 82 82 82 83 84 85 86
81 81 82 83 84 85 85 86 87 87 88 88 88 88 88 88 88 88 88 87 87 86 85 85 85 85 85 85 87 88 89 90 90 90 90 90 90 91 91 92 93 93 93 93 93 94 94 95 95 95 96 96 97 97 96 94 91 88 86 85 85 85 85 84 83 82 80 79 79 79 80 82 83 83 83 82 82 81 81 81 82 82 83 84 85 85
83 83 84 85 86 86 87 87 88 89 89 89 89 89 89 89 88 88 88 88 87 86 85 85 84 84 84 85 87 89 91 91 91 91 91 90 90 90 91 92 93 93 93 93 93 94 94 95 95 96 96 97 98 98 98 96 93 90 88 86 86 85 85 85 84 83 81 80 79 79 80 81 83 84 84 83 82 82 81 82 82 82 83 84 84 85
84 85 86 86 87 88 88 89 89 90 90 90 90 89 89 89 89 88 88 87 87 86 85 84 84 84 85 86 88 90 92 93 93 92 91 90 90 90 91 93 94 94 94 93 93 93 94 95 95 96 96 97 98 99 99 97 95 92 89 87 86 86 86 86 86 85 83 81 80 80 80 81 83 84 84 84 83 82 82 82 82 82 83 83 84 85
85 86 87 88 88 89 89 89 90 91 91 91 90 90 90 90 89 89 88 87 86 85 85 85 85 85 86 87 89 91 93 95 95 94 92 91 90 90 91 92 93 93 93 93 92 92 93 93 94 95 96 97 97 98 99 98 96 93 91 89 87 87 87 87 87 86 84 83 81 80 80 81 83 84 84 84 84 83 82 82 82 82 82 83 84 85
86 87 88 88 89 89 89 90 91 91 91 91 90 90 89 89 89 88 87 87 86 85 85 85 85 86 87 89 90 92 94 95 96 95 93 92 91 91 91 91 92 92 92 91 91 91 91 92 93 94 95 95 96 98 98 98 97 94 92 89 88 87 87 87 87 87 86 84 82 81 81 81 82 84 85 85 84 83 83 83 82 82 82 83 84 85
87 87 88 89 89 89 89 90 91 91 91 91 90 90 89 88 88 87 87 86 86 86 86 86 86 87 88 89 91 92 94 95 96 95 94 93 92 91 91 91 91 91 90 89 89 89 90 90 91 92 93 94 95 96 97 98 97 95 92 90 88 88 88 88 88 88 87 86 84 82 81 81 82 84 85 85 85 84 83 83 82 82 82 82 83 84
87 87 88 89 89 89 90 90 90 91 91 91 90 89 89 88 87 86 86 86 86 86 86 86 87 87 88 89 90 92 94 95 95 94 93 93 92 92 91 91 90 89 88 87 87 87 88 89 89 90 91 91 93 94 95 96 96 95 93 90 89 88 88 88 89 89 88 87 85 83 82 82 82 83 85 85 85 84 84 83 82 81 81 82 83 84
87 88 88 88 89 90 90 90 90 91 91 90 90 89 88 87 86 86 86 86 86 86 86 86 86 86 87 88 90 91 92 93 94 93 92 91 91 91 91 91 90 88 87 86 85 85 86 87 87 88 88 89 90 92 93 94 94 94 92 91 89 88 88 88 89 89 89 87 85 83 82 82 82 83 84 85 85 85 84 83 82 81 81 82 83 83
87 88 88 89 89 90 90 91 91 91 91 91 90 89 88 87 86 86 86 86 86 86 86 85 85 85 85 86 88 89 91 92 92 91 90 89 89 90 91 91 90 88 86 85 84 85 85 86 86 86 86 87 88 90 91 92 93 92 91 90 89 88 87 88 89 89 89 88 86 84 82 82 82 83 84 85 85 85 84 83 82 81 81 82 82 83
88 89 89 89 90 90 91 91 91 91 91 91 91 90 88 88 87 87 86 86 86 86 85 83 83 83 83 84 85 87 89 90 90 90 89 88 87 88 89 89 89 87 85 85 84 85 85 85 85 85 85 85 86 88 89 90 91 91 90 89 88 87 87 87 88 89 89 87 86 84 83 82 82 83 84 85 85 85 84 83 82 81 81 81 82 82
89 90 90 90 91 91 92 92 92 92 92 91 91 90 89 88 87 87 86 86 85 85 83 81 81 80 81 82 83 84 86 88 89 89 88 86 85 85 86 87 88 87 85 85 85 85 85 85 84 84 84 84 85 86 87 88 89 89 89 88 87 86 86 87 87 88 88 87 86 85 83 82 82 82 83 84 85 85 84 83 82 81 81 81 81 82
91 91 91 92 92 92 92 92 92 92 92 92 91 90 89 87 86 86 85 85 84 83 81 79 78 78 78 79 80 82 84 86 87 88 87 85 84 83 84 85 86 86 85 84 84 84 84 84 83 83 82 83 83 84 86 87 88 88 88 87 86 85 85 86 87 87 87 87 86 84 83 82 81 82 83 84 85 85 84 83 82 81 81 81 81 81
91 92 92 92 92 92 92 92 92 92 92 92 91 90 88 87 85 84 84 83 82 80 79 77 76 76 76 77 78 80 82 84 86 86 86 84 83 81 81 82 83 83 83 83 83 83 83 82 82 81 81 81 81 82 83 85 85 86 86 85 85 84 84 85 86 87 87 87 86 84 83 82 81 82 83 84 84 84 84 83 82 81 81 80 80 81
91 91 92 92 92 92 92 92 92 92 92 91 90 89 88 86 84 83 82 81 80 78 77 75 74 74 74 74 75 77 80 82 84 85 84 83 81 79 78 79 79 80 79 79 80 80 80 79 79 78 78 78 79 80 81 82 83 84 84 84 83 83 83 84 85 86 87 86 85 84 82 81 81 82 82 83 84 84 84 83 82 81 81 80 80 80
91 91 91 91 92 92 91 91 91 91 91 90 89 88 87 85 83 82 80 79 77 76 75 74 73 72 72 72 73 75 78 81 82 83 82 80 77 75 75 75 75 75 75 76 76 76 76 76 76 75 75 76 76 77 78 79 80 81 82 82 82 82 82 83 85 85 86 86 85 83 82 81 81 82 82 83 84 84 84 83 82 81 81 80 80 80
90 90 90 91 91 91 90 90 90 90 90 89 88 87 86 84 82 81 79 77 76 75 74 73 72 71 71 71 72 74 76 78 80 80 78 75 73 71 71 71 71 71 71 72 73 73 73 73 73 73 73 73 74 75 76 77 78 78 79 80 80 80 81 83 84 85 86 85 84 83 81 81 81 81 82 83 84 84 84 83 82 81 81 81 80 80
88 89 89 89 89 89 89 89 89 88 88 88 87 86 84 83 81 80 78 76 75 74 73 72 71 71 71 71 71 72 74 75 77 76 73 70 68 67 67 67 67 67 68 69 69 69 70 70 70 70 71 71 71 72 73 74 75 76 76 77 78 79 80 82 83 84 85 84 83 82 81 80 80 81 82 83 84 84 84 83 82 82 81 81 81 81
87 87 88 88 88 88 88 87 87 87 86 86 85 84 83 82 80 78 77 75 74 73 72 71 71 70 70 70 70 70 71 72 72 71 69 66 64 63 63 64 64 65 65 66 66 66 67 67 68 68 68 69 69 70 70 71 72 73 74 75 76 77 79 81 82 83 84 83 82 81 80 79 79 80 81 82 83 84 83 83 82 82 81 81 81 81
85 85 86 86 86 86 86 86 85 85 84 84 83 82 81 80 79 77 76 75 74 73 72 71 70 70 69 69 69 68 68 68 68 67 65 62 60 60 60 61 61 62 63 63 63 64 64 65 65 66 66 67 67 67 68 69 69 70 71 72 74 76 78 79 81 82 82 82 81 80 79 79 79 80 81 82 83 83 83 83 82 82 82 81 81 81
83 84 84 84 84 84 84 84 83 83 82 81 81 80 79 78 77 76 75 74 73 73 72 71 70 69 68 67 66 66 65 65 64 63 61 59 58 57 57 58 59 60 60 61 61 61 62 63 63 64 64 65 65 65 66 66 67 68 69 70 72 74 76 78 80 81 81 81 80 79 78 78 79 80 81 82 83 83 83 83 82 82 82 82 81 81
82 82 82 82 82 82 82 81 81 81 80 79 78 78 77 76 75 74 74 73 73 72 72 71 70 68 67 65 64 63 63 62 62 60 58 57 55 54 55 56 57 57 58 58 58 59 60 61 61 62 62 63 63 64 64 65 65 66 67 69 70 72 75 77 78 79 79 79 79 78 78 78 79 80 81 82 83 83 83 83 82 82 82 82 82 81
80 80 81 80 80 80 80 80 79 79 78 77 76 76 75 74 73 73 72 72 72 72 71 70 69 67 65 63 62 60 60 60 59 58 56 55 53 52 53 53 55 55 56 56 56 57 58 59 59 60 60 61 61 62 63 63 63 64 65 67 69 71 73 75 77 78 78 78 78 78 78 78 79 80 81 82 83 83 83 83 82 82 82 82 82 81
79 79 79 79 79 78 78 78 78 77 76 75 74 74 73 72 72 71 71 71 71 71 70 68 67 65 63 61 60 58 58 57 57 56 54 53 51 51 51 52 53 53 54 54 54 54 55 56 57 58 58 59 60 60 61 61 62 63 64 66 68 70 72 74 75 76 77 77 77 77 78 78 79 81 82 83 83 83 83 83 83 83 82 82 81 81
78 78 78 77 77 77 77 76 76 75 74 73 73 72 71 70 70 70 70 70 70 69 68 66 64 62 61 59 58 56 56 55 54 54 52 51 50 49 49 50 51 52 52 52 52 52 53 54 55 55 56 57 58 59 59 60 61 61 63 65 67 69 71 73 74 76 77 77 77 77 78 79 80 82 83 83 83 83 83 83 83 83 82 82 81 81
77 77 76 76 76 75 75 75 74 73 72 72 71 70 69 69 68 69 69 69 68 67 66 64 62 60 59 57 56 55 53 53 52 52 51 49 48 47 48 49 49 50 50 50 50 50 51 52 53 53 55 56 57 58 58 58 59 60 62 64 66 68 70 72 74 75 76 77 77 78 78 80 81 82 83 83 84 84 83 83 83 83 82 82 81 81
76 76 75 75 75 74 74 73 73 72 71 70 69 68 67 67 67 67 68 67 67 65 63 61 60 58 57 56 54 53 52 51 50 50 49 48 47 46 46 47 48 48 48 48 48 48 49 50 51 52 53 54 55 56 57 57 58 59 61 63 65 68 70 72 74 75 76 77 77 78 79 80 82 83 83 84 84 84 84 83 83 83 82 82 81 81
76 75 74 74 73 73 73 72 71 70 69 68 67 67 66 66 66 66 66 65 64 62 60 59 57 56 55 54 53 51 50 49 49 48 47 46 45 45 45 46 46 46 46 46 46 47 47 48 49 50 52 53 54 55 55 56 57 58 60 62 65 68 70 72 74 75 76 77 77 79 80 81 82 83 83 84 84 84 84 83 83 83 82 82 81 81
74 74 73 73 72 72 72 71 70 68 67 66 66 65 65 65 65 64 64 63 62 60 58 56 55 54 53 52 51 50 49 48 47 46 45 45 44 44 44 44 44 45 44 44 45 45 46 47 48 49 51 52 53 53 54 55 56 58 60 62 65 67 70 72 73 75 76 77 78 79 80 82 82 83 83 83 83 83 83 83 82 82 82 81 80 80
74 73 72 72 71 71 70 69 68 67 66 65 65 64 64 64 63 62 61 60 59 57 56 54 53 52 51 50 49 48 47 47 46 45 44 43 43 42 42 43 43 43 43 43 44 44 45 46 47 48 49 50 51 52 53 54 55 57 59 61 64 67 69 71 73 75 76 77 78 80 81 82 83 83 83 83 83 83 82 82 82 81 81 80 79 78
72 72 71 71 70 70 69 68 67 66 65 64 64 64 63 63 62 60 59 58 56 55 54 52 51 51 50 49 48 47 46 45 44 44 43 42 41 41 41 41 41 41 42 42 43 43 44 44 45 46 48 49 50 51 51 53 54 56 59 61 64 67 70 72 73 75 76 77 79 80 81 82 82 83 83 83 82 82 82 82 81 80 79 78 77 76
71 71 70 70 69 69 68 66 65 64 63 63 63 63 62 62 60 58 57 55 54 53 52 50 50 49 48 47 46 46 45 44 43 42 41 41 40 40 40 40 40 40 41 41 42 42 43 43 44 45 46 47 48 49 50 52 54 56 59 62 65 67 70 72 73 75 76 78 79 80 81 82 82 82 82 82 82 82 82 81 80 79 78 77 76 76
70 69 69 68 68 67 66 65 63 63 62 62 62 62 61 60 58 57 55 53 52 50 50 49 48 47 46 46 45 44 44 43 42 41 40 39 39 39 38 38 39 39 40 40 41 41 41 42 42 43 44 45 47 48 50 51 54 56 59 62 65 67 69 71 73 74 76 78 79 80 80 80 81 81 81 81 81 81 81 80 79 78 77 76 75 76
70 68 68 67 66 65 64 63 62 61 61 61 61 61 60 58 57 54 53 51 50 49 48 47 46 45 45 44 44 43 42 41 40 39 39 38 38 37 37 37 37 38 39 39 40 40 40 40 40 41 42 43 45 47 49 51 54 56 59 62 65 67 69 71 72 74 76 77 78 78 78 79 79 80 80 80 80 80 79 78 77 76 76 75 75 77
69 68 67 66 65 64 63 62 61 60 60 60 60 60 58 57 55 52 51 49 48 47 46 45 44 44 43 43 42 42 41 40 39 38 37 36 36 36 36 36 36 37 37 38 38 38 38 38 38 39 40 42 44 46 48 51 54 57 60 62 65 67 69 71 72 73 74 75 75 76 77 77 78 78 78 79 78 78 77 76 76 75 75 75 76 78
68 67 66 65 64 62 61 60 60 59 59 59 59 58 57 55 53 51 49 47 46 45 44 43 43 42 42 41 41 40 39 38 37 36 35 35 35 34 34 34 35 35 36 37 37 37 36 36 36 37 39 41 43 46 48 51 54 57 60 62 64 66 68 69 71 72 72 73 74 75 76 77 77 77 77 77 77 76 76 75 75 75 75 75 77 79
67 66 65 63 62 61 60 59 58 58 58 58 57 56 55 53 51 49 47 45 44 43 42 42 41 41 40 40 39 39 38 37 36 35 34 33 33 33 33 33 33 34 35 35 35 35 35 34 35 36 38 40 43 45 48 51 54 57 59 61 63 65 67 68 69 70 71 72 74 75 76 77 77 77 76 76 76 75 75 75 75 75 75 76 78 80
66 64 63 62 60 59 58 58 57 57 57 56 56 54 53 51 49 47 46 44 43 42 41 40 40 39 39 38 38 37 36 35 34 33 32 32 31 31 31 31 32 33 33 34 34 34 33 33 34 36 38 41 43 45 48 51 54 56 59 61 62 64 66 67 69 70 72 74 75 77 77 77 76 76 76 75 75 75 75 75 75 75 76 77 78 81
64 63 62 60 59 58 57 56 56 56 55 54 53 52 51 49 48 46 44 42 41 40 39 39 38 38 38 37 36 35 34 32 31 31 31 30 29 29 29 29 30 31 32 32 33 33 33 33 34 36 39 41 43 46 49 51 53 56 58 60 62 64 65 67 69 71 73 74 76 76 76 76 75 75 75 75 75 74 75 75 75 75 76 77 78 81
Wind_Direction
275 275 275 275 275 276 276 276 276 276 277 277 277 277 277 277 277 277 276 276 276 276 276 276 276 276 276 276 275 275 275 275 274 274 273 272 271 270 268 267 265 264 263 263 263 263 264 265 265 265 264 264 262 261 260 258 258 257 257 257 257 257 256 256 256 255 254 253 253 252 251 251 251 251 251 250 250 249 249 249 249 249 248 248 247 246
275 275 275 275 275 276 276 276 276 276 276 276 276 277 277 277 277 277 277 277 276 276 276 276 276 276 276 276 276 276 276 275 275 275 275 274 274 273 272 271 269 267 266 264 262 262 262 262 263 264 264 264 263 262 260 259 257 256 256 255 256 256 256 255 255 255 254 253 252 252 251 250 250 249 249 248 248 247 247 247 247 248 248 247 246 246
276 276 276 276 276 276 276 276 276 276 276 276 276 276 276 276 276 276 276 276 276 276 276 276 276 276 276 275 275 275 275 275 275 275 275 275 275 274 274 273 273 271 270 267 265 263 262 261 261 261 262 263 263 262 261 260 258 256 255 254 254 254 254 254 254 254 254 253 252 251 250 250 249 248 247 247 246 246 245 245 246 246 247 246 246 245
277 277 277 276 276 276 276 276 276 276 276 275 275 275 275 275 275 276 276 276 276 276 276 276 275 275 275 275 275 275 275 275 275 275 275 275 275 275 275 275 274 274 273 271 269 267 264 262 260 260 260 261 261 261 261 260 259 257 255 253 252 252 252 253 253 253 253 253 252 251 250 249 248 247 246 245 245 245 245 244 244 244 245 245 245 245
277 277 277 277 277 277 276 276 276 276 276 275 275 275 275 275 275 275 275 275 275 275 275 275 275 274 274 274 274 274 274 274 274 274 274 274 274 274 274 274 274 274 274 273 272 270 268 265 262 260 259 259 259 260 260 260 259 258 256 254 252 251 250 251 251 252 252 252 252 251 250 249 248 247 246 245 244 244 244 244 244 243 243 244 244 244
278 278 278 278 277 277 277 277 276 276 276 275 275 275 275 275 274 274 274 274 274 274 274 274 274 274 274 274 274 273 273 273 273 273 273 273 273 273 273 273 273 273 273 273 272 272 270 268 266 263 260 259 258 258 258 259 259 258 257 255 252 251 249 249 249 250 251 251 251 251 250 248 247 246 245 244 243 243 243 243 243 243 242 242 243 243
278 278 278 278 278 278 278 277 277 277 276 276 276 275 275 275 275 274 274 274 274 274 274 274 274 274 274 274 273 273 273 273 273 272 272 272 272 272 272 271 271 271 271 271 271 271 271 270 268 266 263 261 259 258 257 257 258 258 257 255 253 251 249 248 248 248 249 250 250 250 249 248 247 246 244 243 243 242 242 243 243 242 242 241 242 242
279 279 279 279 279 279 279 278 278 278 277 277 277 276 276 276 275 275 275 275 274 274 274 274 274 274 274 274 274 273 273 273 273 272 272 272 271 271 271 270 270 269 269 268 268 268 269 269 268 267 266 263 261 259 257 256 256 257 257 256 254 252 250 248 247 246 246 248 249 249 249 248 247 245 244 243 242 242 242 242 242 242 241 241 241 241
281 281 281 281 281 281 280 280 279 279 279 279 278 278 277 277 276 276 276 276 275 275 275 275 275 274 274 274 274 274 274 273 273 273 272 272 271 270 270 269 268 268 267 266 266 266 266 266 267 267 266 265 263 260 258 257 256 256 256 255 255 253 251 249 247 245 245 245 247 248 248 247 246 245 244 243 242 241 241 241 241 241 241 241 241 240
283 283 283 283 282 282 282 282 281 281 280 280 280 279 279 278 278 277 277 277 276 276 276 276 276 275 275 275 275 275 274 274 273 273 272 271 271 270 269 268 267 267 266 265 264 264 264 264 264 264 265 265 264 262 260 258 256 255 255 255 254 253 252 250 247 245 244 244 245 246 246 246 246 245 243 242 241 241 240 241 241 241 240 240 240 239
284 284 284 284 284 283 283 283 282 282 282 281 281 280 279 279 279 278 278 278 277 277 277 276 276 276 276 276 276 275 275 274 274 273 272 271 270 269 268 267 267 266 265 264 263 263 262 262 262 262 263 263 263 262 261 259 257 255 254 254 254 253 252 250 248 246 244 243 243 244 245 245 245 244 243 242 241 240 240 240 240 240 240 239 239 238
285 285 285 285 285 284 284 284 283 283 283 282 282 281 281 280 280 279 279 279 278 278 277 277 277 277 277 277 276 276 275 274 273 272 271 270 269 268 267 266 265 265 264 263 263 262 261 261 260 260 260 261 261 262 261 260 258 256 254 253 253 253 252 251 249 247 244 243 242 242 243 244 244 244 243 241 241 240 239 239 239 239 239 238 238 237
286 286 286 286 286 286 285 285 285 284 284 283 283 283 282 281 281 280 280 279 279 278 278 278 278 278 278 277 277 276 275 274 273 272 271 270 269 268 267 266 265 264 263 262 262 261 261 260 259 259 259 259 260 260 260 260 258 256 255 253 252 252 252 251 249 247 245 243 241 241 241 242 243 243 242 241 240 239 239 239 238 238 238 237 237 236
287 287 287 287 287 287 287 286 286 286 285 285 284 284 283 283 282 282 281 281 280 280 280 279 279 279 279 278 278 277 276 274 273 272 270 269 268 267 267 266 264 263 262 261 261 260 260 259 259 258 258 258 258 258 259 259 258 257 255 253 252 251 251 250 249 248 245 243 241 240 240 240 241 242 241 241 240 239 238 238 237 237 237 237 236 236
289 289 289 289 288 288 288 288 287 287 286 286 285 285 284 284 283 283 283 282 282 281 281 281 281 280 280 279 279 278 277 275 273 272 270 269 268 267 266 265 264 263 262 261 260 260 259 259 258 258 257 257 257 257 258 258 257 256 255 253 252 251 250 250 249 248 246 244 242 240 239 239 240 240 241 240 239 238 238 237 236 236 236 236 235 235
290 290 290 290 290 289 289 289 288 288 287 286 286 286 285 285 284 284 284 283 283 283 283 282 282 281 281 280 279 278 277 276 274 273 271 270 268 267 266 265 264 263 262 261 260 260 259 258 258 258 257 257 256 256 257 257 257 256 255 253 252 251 250 249 249 248 247 244 242 240 239 238 239 239 240 239 239 238 237 236 236 235 235 235 234 234
291 291 291 290 290 290 289 289 288 288 287 287 286 286 286 285 285 285 285 284 284 284 284 283 283 282 281 281 280 279 278 277 275 274 272 271 269 268 267 266 265 264 263 262 261 260 259 258 258 257 257 256 256 256 256 256 256 256 255 253 252 250 249 249 249 248 247 245 243 241 239 238 238 238 239 239 238 237 237 236 235 234 234 234 233 233
291 291 291 290 290 290 289 289 289 288 287 287 287 286 286 286 286 285 285 285 285 285 284 284 283 282 282 281 280 279 278 277 276 275 273 272 271 269 268 266 265 264 264 263 262 261 260 259 258 257 256 256 256 255 255 255 255 255 254 253 251 250 249 248 248 247 247 245 243 241 239 237 237 237 238 238 238 237 236 236 235 234 233 233 233 233
291 291 291 290 290 290 290 289 289 288 288 287 287 287 286 286 286 286 286 285 285 285 284 284 283 282 281 281 280 279 278 277 276 275 274 273 272 271 269 268 267 265 264 263 262 261 260 259 258 257 256 256 255 255 255 255 255 254 254 252 251 249 248 247 247 247 246 245 243 241 239 237 236 236 237 237 237 236 236 235 234 234 233 232 232 232
291 291 291 291 291 290 290 289 289 289 288 288 287 287 287 286 286 286 286 286 285 285 284 283 283 282 281 280 279 278 277 276 275 275 274 274 273 272 271 270 268 267 266 264 263 262 261 260 258 257 256 255 254 254 254 254 254 253 253 252 250 249 248 247 246 246 245 244 243 241 239 237 236 235 236 236 236 236 235 235 234 233 232 232 231 231
292 292 291 291 291 291 291 290 290 289 289 288 288 288 287 287 287 287 286 286 286 285 284 283 283 282 281 280 279 278 277 276 275 274 274 273 273 273 272 271 270 268 267 266 264 263 261 260 259 257 256 255 254 253 253 253 253 252 252 251 250 248 247 246 245 245 244 244 242 241 239 237 235 235 235 235 235 235 235 234 233 233 232 231 231 230
293 293 292 292 292 292 291 291 291 290 290 289 289 289 288 288 288 288 287 287 286 285 284 283 283 282 281 280 279 278 277 276 275 274 274 273 273 272 272 271 270 269 268 267 265 264 262 260 259 258 256 255 254 253 252 252 252 251 251 250 249 247 246 245 244 244 243 243 242 240 239 237 235 234 234 234 234 234 234 233 233 232 231 231 230 230
294 294 294 293 293 293 292 292 291 291 291 290 290 290 290 290 289 289 288 288 287 286 285 284 283 282 281 280 279 278 277 276 275 274 274 273 272 272 272 272 271 270 269 268 266 265 263 261 260 258 256 255 253 252 251 251 251 250 250 249 248 246 245 244 243 243 243 242 241 240 238 236 235 234 233 233 233 233 233 233 232 231 231 230 230 229
295 295 295 294 294 293 293 293 292 292 292 291 291 291 291 291 290 290 289 288 287 286 285 284 283 282 281 280 279 278 277 276 276 275 274 273 273 272 272 272 271 271 270 268 267 265 264 262 260 258 257 255 253 252 251 250 249 249 248 247 246 245 244 243 242 242 242 241 240 239 237 236 234 233 232 232 232 233 232 232 231 231 230 230 229 229
296 296 295 295 295 294 294 293 293 293 293 292 292 292 292 291 291 290 289 289 287 287 286 285 284 282 281 280 279 278 277 277 276 276 275 274 273 272 272 271 271 270 269 268 267 265 264 262 261 259 257 255 253 251 250 249 248 248 247 246 245 244 243 242 241 241 240 240 239 238 236 235 233 232 232 231 232 232 232 231 230 230 229 229 229 228
296 296 296 295 295 295 294 294 294 294 293 293 293 293 292 292 291 291 290 289 288 287 286 285 284 283 281 280 280 279 278 277 277 276 275 275 274 273 272 271 271 270 269 267 266 265 263 262 260 258 257 255 253 251 249 248 247 246 245 245 243 242 241 240 239 239 239 239 238 237 236 234 232 231 231 230 231 231 231 230 230 229 229 228 228 227
297 296 296 296 295 295 295 295 295 295 294 294 294 294 293 293 292 291 290 289 288 287 287 286 284 283 282 281 280 280 279 278 277 277 276 276 275 274 273 271 270 269 268 266 265 264 262 261 259 258 256 254 252 250 248 247 246 245 244 243 242 240 239 238 238 237 237 237 237 236 234 233 231 230 229 229 229 229 230 229 229 228 228 227 227 226
297 297 296 296 296 296 296 296 296 296 296 295 295 295 294 293 293 292 291 290 289 288 287 287 286 284 283 282 281 281 280 279 278 277 277 276 276 275 273 271 269 268 267 265 264 263 261 260 258 257 255 253 251 249 247 246 245 243 242 241 240 239 237 236 236 235 235 235 235 234 233 231 230 229 228 228 228 228 228 228 228 227 227 226 226 225
297 297 297 297 296 296 297 297 297 297 296 296 296 295 295 294 293 293 292 291 290 289 289 288 287 286 285 284 283 282 281 280 279 278 277 277 276 275 273 271 269 267 265 264 263 261 260 259 257 255 254 252 250 248 246 245 243 242 241 239 238 237 235 234 234 233 233 233 233 233 231 230 229 228 227 227 227 227 227 227 227 226 226 225 225 224
297 297 297 297 297 297 297 297 297 297 297 297 296 296 295 295 294 293 293 292 291 291 290 289 288 288 287 286 284 283 282 280 279 278 278 277 276 274 272 270 268 266 264 263 262 260 259 258 256 254 252 251 249 247 245 244 242 240 239 238 236 235 233 232 232 232 232 232 231 231 230 229 227 226 226 226 226 226 226 226 226 225 225 225 224 224
298 297 297 297 298 298 298 298 298 298 297 297 297 296 296 295 295 294 294 293 293 292 291 291 290 289 288 287 286 284 282 281 280 279 278 277 275 273 272 270 268 266 264 262 260 259 258 256 255 253 251 249 248 246 244 242 241 239 238 236 234 233 232 231 230 230 230 230 230 229 228 227 226 225 225 224 225 225 225 225 225 224 224 224 223 223
298 298 298 298 298 298 298 298 298 298 298 297 297 297 296 296 295 295 295 294 294 293 293 292 291 290 289 288 287 285 283 281 280 279 278 277 275 273 271 269 267 265 263 261 260 258 256 255 253 252 250 248 246 245 243 241 239 237 236 234 233 231 230 229 228 228 228 228 228 227 226 225 224 223 223 223 224 224 224 224 224 223 223 223 222 222
298 298 298 298 298 299 299 299 299 298 298 298 297 297 297 296 296 296 295 295 295 294 294 293 292 291 290 289 287 286 284 282 281 279 278 277 275 273 271 269 267 265 262 261 259 257 255 254 252 250 249 247 245 243 241 239 237 236 234 232 231 229 228 227 227 227 227 226 226 225 224 223 222 222 222 222 222 223 223 223 223 223 222 222 222 221
298 298 298 299 299 299 299 299 299 299 298 298 298 297 297 296 296 296 296 295 295 295 294 294 293 292 291 289 287 286 284 283 281 280 278 277 275 273 271 268 266 264 262 260 258 256 254 253 251 249 247 245 244 242 240 238 236 234 232 230 229 227 226 226 225 225 225 224 224 223 222 221 220 220 220 220 221 221 222 222 222 222 221 221 221 221
299 299 299 300 300 300 300 300 300 299 299 298 298 297 297 296 296 296 296 296 295 295 295 294 294 293 291 289 287 286 284 283 282 280 279 277 275 272 270 268 266 263 261 259 257 255 253 252 250 248 246 244 242 240 238 236 234 232 230 228 227 226 225 224 223 223 223 222 222 221 220 219 218 218 218 219 219 220 220 221 221 221 221 221 220 220
300 300 301 301 301 301 301 301 300 299 299 298 298 297 297 297 296 296 296 296 296 295 295 295 294 293 291 290 288 286 285 283 282 280 279 277 275 272 270 267 265 263 261 258 256 254 253 251 249 247 245 243 241 239 237 234 232 230 228 226 224 223 223 222 221 221 221 220 219 219 218 217 217 217 217 218 218 218 219 219 220 220 220 220 219 219
301 302 302 302 302 302 301 301 300 300 299 299 298 297 297 297 297 297 297 296 296 296 295 295 294 293 291 290 288 287 286 284 282 281 279 277 274 272 269 267 264 262 260 258 256 254 252 250 248 246 244 242 239 237 235 233 230 228 226 224 222 221 220 220 219 219 218 218 217 216 216 215 215 215 216 216 217 217 217 218 218 219 219 219 219 218
302 303 303 303 303 302 302 301 300 300 299 299 298 298 297 297 297 297 297 297 296 296 296 295 294 293 291 290 289 287 286 285 283 281 279 277 274 272 269 266 264 262 260 257 255 253 251 249 247 245 243 240 238 236 233 230 228 226 224 222 221 219 218 217 217 216 216 216 215 214 214 214 214 214 215 215 216 216 216 217 217 217 218 218 218 217
303 304 304 304 303 303 302 301 300 300 299 299 298 298 298 298 298 298 297 297 297 296 296 295 294 293 292 290 289 288 286 285 283 281 279 277 274 272 269 266 264 262 259 257 255 252 250 248 246 244 241 239 236 234 231 228 226 224 222 220 219 217 216 215 215 214 214 214 213 212 212 212 212 213 214 214 215 215 215 216 216 216 216 217 216 216
304 304 304 304 304 303 302 301 301 300 300 299 299 298 298 298 298 298 298 297 297 296 296 295 294 293 292 291 290 288 287 285 283 281 279 277 274 272 269 266 264 261 259 256 254 251 249 247 244 242 240 237 235 232 229 227 224 222 220 218 217 215 214 213 213 212 212 212 211 211 211 211 211 212 213 213 214 214 215 215 215 215 216 216 215 215
305 305 305 305 304 303 303 302 301 301 300 300 299 299 299 299 299 298 298 297 297 296 296 295 294 293 292 291 290 289 287 285 283 281 279 277 274 271 269 266 264 261 259 256 253 250 247 245 243 240 238 236 233 231 227 225 222 220 218 217 215 214 213 212 211 211 210 210 209 209 209 210 210 211 212 212 213 214 214 214 215 215 215 215 215 215
306 306 306 305 305 304 303 302 302 301 301 300 300 300 299 299 299 299 298 298 297 296 296 295 294 293 292 291 290 289 287 285 283 281 279 276 274 271 268 266 263 261 258 255 252 249 246 243 241 239 237 234 232 229 226 223 220 218 217 215 214 212 211 211 210 209 209 208 208 208 208 209 209 210 211 211 212 213 213 214 214 214 214 215 215 215
307 307 306 306 305 304 303 303 302 302 301 301 300 300 300 300 300 299 299 298 297 297 296 295 294 294 293 292 291 289 287 285 283 281 278 276 273 270 268 265 262 260 257 254 250 247 244 242 239 237 235 233 230 227 224 221 218 216 215 213 212 211 210 209 208 208 207 207 207 207 207 208 209 209 210 210 211 212 212 213 213 213 214 214 213 213
307 307 307 306 305 304 303 303 302 302 302 301 301 301 301 300 300 300 299 298 298 297 296 296 295 294 293 292 291 290 288 285 283 280 278 275 273 270 267 265 262 259 256 252 249 245 242 240 238 235 233 231 228 225 222 219 217 214 213 212 210 210 209 208 207 207 206 206 206 206 207 207 208 209 209 210 210 211 211 212 212 212 212 212 212 211
307 307 307 306 305 304 304 303 303 303 302 302 302 301 301 301 301 300 299 298 298 297 296 296 295 294 294 293 291 290 288 285 283 280 278 275 272 269 266 264 261 257 254 251 247 244 241 238 236 234 231 229 226 223 220 217 215 213 211 210 209 208 208 207 206 206 205 205 206 206 206 207 207 208 208 209 210 210 211 211 211 211 211 211 210 209
308 307 307 306 305 305 304 304 303 303 303 302 302 302 301 301 301 300 299 299 298 297 297 296 295 295 294 293 291 290 287 285 282 280 277 274 272 269 265 262 259 256 252 249 245 242 239 236 234 232 229 227 224 221 218 215 213 211 210 209 208 207 206 205 205 205 205 205 205 205 206 206 207 207 208 208 209 210 210 210 210 210 209 209 208 208
308 308 307 306 306 305 304 304 304 303 303 303 302 302 302 301 301 300 300 299 298 298 297 296 296 295 294 293 291 289 287 284 282 279 276 274 271 268 264 261 257 254 250 246 243 239 236 233 231 229 227 225 222 219 216 213 211 210 209 207 206 205 205 204 204 204 204 205 205 205 205 205 206 207 207 208 208 209 209 209 209 208 208 207 207 206
308 308 307 307 306 305 305 304 304 304 303 303 302 302 302 301 301 300 300 299 299 298 297 297 296 295 294 293 291 289 286 284 281 279 276 273 270 266 263 259 255 251 248 244 240 237 233 230 228 226 224 222 219 217 214 212 210 209 207 206 205 204 204 203 203 203 203 203 203 204 204 204 205 206 206 207 207 208 208 208 207 207 206 206 205 205
308 308 307 307 306 305 305 304 304 304 303 303 303 302 302 301 301 300 300 300 299 299 298 297 297 295 294 293 290 288 286 283 281 278 275 272 268 264 261 257 253 249 245 241 237 233 229 226 223 221 220 218 216 214 212 210 209 207 206 205 204 203 203 202 202 201 201 201 201 202 203 204 204 205 205 205 206 206 206 206 206 206 205 205 205 205
308 308 307 307 306 306 305 305 304 304 304 303 303 302 302 301 301 301 300 300 299 299 298 298 297 296 294 292 290 287 285 282 280 277 274 270 266 262 258 254 250 246 241 237 233 228 224 221 218 217 216 214 213 211 210 208 207 206 205 203 203 202 201 201 200 200 200 200 200 201 202 203 203 203 204 204 204 205 205 205 205 205 204 204 204 205
308 308 307 307 306 306 305 305 304 304 304 303 303 302 302 301 301 301 300 300 300 300 299 298 297 296 294 292 289 286 284 282 279 276 272 268 264 259 255 250 246 242 238 233 228 224 219 216 214 213 212 211 209 208 207 206 205 204 203 202 201 200 200 199 199 199 199 200 201 201 202 202 202 202 203 203 203 203 204 204 204 204 204 204 204 204
Height
10503 10502 10501 10499 10498 10496 10495 10494 10492 10491 10489 10489 10487 10486 10484 10483 10482 10481 10480 10479 10479 10478 10478 10477 10477 10476 10476 10475 10474 10473 10473 10472 10472 10472 10473 10473 10474 10475 10476 10478 10479 10481 10483 10484 10485 10485 10485 10484 10485 10485 10487 10489 10491 10495 10498 10501 10504 10506 10507 10508 10509 10511 10513 10514 10516 10518 10519 10523 10526 10529 10532 10534 10536 10539 10542 10546 10549 10551 10553 10555 10556 10556 10558 10561 10564 10567
10498 10496 10495 10494 10493 10491 10489 10488 10487 10486 10484 10483 10481 10479 10478 10477 10476 10475 10474 10473 10472 10471 10471 10471 10470 10470 10469 10468 10468 10466 10466 10464 10464 10464 10464 10464 10464 10465 10466 10467 10469 10471 10473 10475 10477 10479 10479 10479 10479 10479 10479 10480 10482 10484 10488 10492 10496 10498 10500 10501 10503 10504 10506 10507 10508 10509 10511 10514 10518 10521 10524 10527 10530 10533 10536 10539 10543 10545 10545 10548 10551 10552 10551 10554 10557 10561
10491 10491 10489 10488 10488 10486 10484 10483 10481 10480 10478 10477 10475 10474 10473 10471 10470 10469 10468 10466 10465 10464 10464 10464 10463 10463 10463 10462 10461 10460 10459 10458 10457 10456 10456 10456 10456 10456 10457 10457 10458 10459 10461 10463 10466 10469 10471 10473 10473 10473 10473 10473 10474 10476 10478 10482 10486 10489 10493 10494 10496 10498 10499 10500 10501 10502 10504 10506 10509 10513 10516 10519 10523 10526 10529 10532 10535 10537 10536 10538 10542 10546 10548 10548 10550 10553
10485 10484 10483 10482 10481 10480 10478 10477 10475 10474 10472 10471 10469 10468 10467 10466 10464 10463 10462 10461 10459 10458 10458 10457 10456 10456 10456 10455 10454 10453 10453 10451 10451 10450 10449 10449 10449 10449 10449 10449 10449 10449 10450 10451 10453 10456 10459 10462 10464 10466 10467 10467 10467 10468 10469 10471 10475 10479 10484 10487 10489 10491 10492 10493 10494 10495 10496 10498 10501 10504 10508 10511 10515 10519 10522 10524 10526 10528 10529 10529 10533 10538 10544 10548 10546 10545
10479 10478 10477 10476 10475 10473 10472 10471 10469 10467 10466 10464 10463 10462 10461 10460 10459 10458 10456 10454 10453 10452 10451 10450 10449 10449 10448 10448 10448 10447 10446 10445 10444 10443 10443 10443 10442 10442 10441 10441 10441 10441 10441 10441 10442 10443 10446 10449 10453 10456 10459 10460 10461 10461 10462 10463 10465 10469 10473 10478 10481 10483 10485 10486 10488 10488 10489 10490 10493 10496 10499 10503 10507 10511 10514 10516 10518 10518 10520 10521 10523 10528 10534 10540 10543 10543
10473 10471 10470 10469 10468 10467 10465 10464 10462 10460 10458 10457 10456 10456 10454 10453 10452 10451 10449 10448 10447 10446 10444 10444 10443 10443 10441 10441 10440 10439 10439 10438 10438 10437 10436 10436 10435 10435 10434 10434 10434 10433 10433 10433 10433 10433 10434 10436 10440 10444 10448 10451 10453 10454 10455 10456 10457 10459 10463 10468 10471 10475 10478 10479 10481 10481 10482 10483 10484 10488 10491 10495 10499 10503 10506 10508 10509 10510 10511 10513 10515 10518 10524 10530 10536 10540
10467 10465 10464 10463 10461 10460 10458 10456 10454 10453 10451 10450 10449 10448 10448 10446 10444 10443 10442 10441 10440 10439 10438 10437 10436 10436 10435 10434 10433 10433 10432 10431 10431 10430 10429 10429 10428 10428 10428 10427 10427 10426 10426 10425 10425 10424 10424 10425 10428 10431 10435 10439 10443 10446 10448 10449 10449 10451 10453 10457 10461 10466 10469 10472 10474 10475 10476 10476 10477 10479 10483 10487 10491 10494 10497 10500 10502 10503 10504 10505 10508 10511 10516 10520 10525 10531
10461 10459 10458 10456 10454 10452 10451 10449 10447 10445 10443 10443 10441 10441 10439 10438 10437 10436 10434 10434 10433 10432 10431 10430 10429 10429 10428 10427 10426 10424 10424 10424 10423 10423 10422 10421 10421 10420 10420 10419 10419 10419 10418 10418 10418 10417 10417 10416 10417 10419 10422 10426 10431 10436 10439 10441 10442 10443 10444 10448 10451 10456 10460 10464 10466 10468 10469 10469 10470 10472 10474 10478 10483 10486 10489 10491 10494 10496 10498 10499 10501 10504 10508 10512 10516 10521
10454 10452 10450 10449 10447 10444 10443 10441 10439 10437 10436 10434 10433 10433 10431 10430 10429 10428 10428 10426 10425 10424 10423 10423 10422 10421 10421 10419 10418 10417 10416 10415 10415 10414 10414 10413 10413 10412 10411 10411 10410 10410 10410 10410 10410 10410 10409 10409 10409 10409 10411 10414 10418 10424 10428 10432 10434 10436 10437 10439 10442 10446 10451 10454 10458 10460 10462 10463 10463 10464 10466 10470 10474 10478 10481 10483 10486 10489 10492 10494 10495 10497 10501 10505 10509 10512
10447 10445 10443 10441 10439 10438 10435 10432 10430 10429 10428 10426 10424 10424 10423 10421 10420 10419 10419 10418 10417 10416 10416 10414 10414 10413 10413 10412 10411 10409 10408 10406 10406 10406 10405 10404 10404 10403 10402 10401 10401 10400 10400 10401 10401 10401 10401 10401 10401 10401 10401 10403 10406 10411 10416 10421 10425 10428 10429 10431 10433 10436 10441 10445 10449 10452 10454 10455 10456 10458 10459 10461 10465 10469 10473 10475 10478 10481 10484 10487 10489 10491 10494 10499 10503 10506
10439 10438 10436 10434 10431 10429 10428 10425 10423 10421 10419 10418 10416 10414 10414 10413 10412 10411 10411 10409 10409 10408 10408 10406 10406 10405 10404 10404 10402 10401 10399 10398 10396 10395 10395 10394 10394 10393 10392 10391 10391 10391 10390 10391 10391 10392 10393 10393 10394 10393 10393 10394 10396 10399 10404 10409 10414 10418 10421 10423 10424 10427 10431 10434 10439 10443 10446 10448 10449 10450 10451 10454 10457 10460 10464 10467 10469 10473 10476 10480 10483 10485 10488 10493 10496 10499
10431 10430 10428 10426 10424 10421 10419 10417 10415 10413 10411 10409 10407 10405 10404 10404 10404 10403 10402 10401 10399 10399 10399 10398 10398 10397 10396 10394 10393 10391 10389 10388 10386 10384 10384 10384 10383 10383 10381 10381 10380 10380 10381 10381 10381 10382 10383 10384 10385 10385 10385 10385 10386 10388 10393 10398 10403 10408 10411 10414 10416 10418 10421 10425 10429 10433 10437 10439 10441 10443 10444 10446 10448 10452 10455 10459 10462 10464 10468 10472 10475 10478 10482 10486 10490 10493
10424 10423 10421 10418 10416 10413 10411 10408 10406 10404 10403 10401 10399 10396 10394 10394 10394 10393 10392 10391 10390 10390 10390 10389 10389 10388 10388 10386 10383 10380 10378 10376 10374 10373 10373 10373 10372 10371 10371 10370 10369 10370 10371 10371 10372 10373 10373 10374 10376 10376 10376 10377 10377 10378 10381 10386 10391 10396 10401 10405 10408 10409 10412 10415 10419 10423 10427 10431 10433 10435 10436 10438 10440 10443 10446 10451 10454 10457 10460 10464 10468 10471 10475 10479 10481 10484
10416 10414 10413 10411 10408 10405 10403 10400 10398 10395 10393 10391 10389 10388 10386 10384 10384 10383 10381 10381 10380 10381 10381 10380 10379 10378 10378 10376 10373 10369 10365 10363 10361 10361 10361 10361 10361 10361 10360 10359 10358 10359 10360 10361 10363 10363 10364 10364 10366 10366 10368 10368 10368 10369 10371 10375 10380 10385 10391 10395 10398 10401 10403 10406 10409 10413 10417 10421 10424 10427 10429 10431 10433 10435 10438 10442 10446 10449 10453 10456 10460 10464 10468 10471 10474 10477
10409 10406 10404 10402 10399 10397 10394 10391 10389 10386 10383 10381 10380 10379 10377 10376 10374 10373 10372 10371 10370 10370 10371 10371 10369 10369 10368 10366 10362 10357 10353 10349 10348 10348 10349 10350 10351 10350 10349 10348 10346 10347 10349 10351 10353 10353 10354 10355 10356 10357 10358 10359 10359 10359 10361 10364 10369 10374 10380 10385 10389 10392 10394 10396 10399 10403 10408 10412 10416 10419 10421 10423 10424 10427 10430 10434 10438 10441 10445 10449 10453 10457 10460 10463 10467 10471
10401 10399 10396 10393 10391 10388 10386 10383 10380 10377 10374 10373 10371 10370 10368 10366 10365 10364 10363 10361 10361 10361 10361 10360 10359 10358 10357 10355 10352 10346 10340 10336 10334 10335 10337 10338 10339 10339 10338 10336 10335 10336 10338 10341 10343 10343 10344 10346 10346 10347 10348 10350 10350 10351 10352 10354 10359 10364 10369 10374 10379 10383 10386 10388 10390 10394 10398 10402 10406 10410 10413 10415 10417 10419 10422 10426 10429 10434 10438 10441 10446 10449 10453 10457 10460 10464
10393 10391 10388 10385 10382 10380 10378 10375 10372 10368 10366 10364 10363 10361 10360 10358 10356 10354 10353 10353 10351 10351 10351 10350 10349 10348 10345 10343 10340 10336 10329 10324 10321 10322 10324 10326 10327 10327 10326 10325 10324 10324 10327 10330 10333 10334 10334 10336 10336 10337 10338 10339 10341 10341 10343 10345 10349 10354 10359 10364 10369 10374 10377 10379 10381 10384 10388 10393 10398 10401 10405 10408 10409 10411 10414 10418 10422 10426 10429 10433 10438 10443 10446 10450 10454 10458
10386 10383 10379 10376 10374 10371 10369 10367 10363 10359 10357 10355 10354 10353 10351 10349 10348 10346 10345 10344 10343 10342 10341 10340 10339 10337 10334 10331 10328 10324 10319 10313 10309 10309 10311 10313 10314 10314 10314 10313 10313 10313 10316 10319 10322 10324 10324 10325 10326 10327 10328 10330 10331 10332 10333 10335 10338 10343 10349 10355 10361 10365 10368 10370 10373 10375 10379 10383 10388 10393 10396 10399 10401 10404 10406 10410 10414 10418 10422 10426 10431 10435 10439 10443 10447 10451
10378 10374 10372 10368 10365 10363 10361 10358 10354 10351 10348 10346 10344 10344 10343 10341 10339 10338 10337 10335 10334 10333 10331 10329 10328 10326 10324 10321 10317 10313 10308 10303 10299 10298 10300 10301 10302 10303 10302 10301 10301 10303 10305 10309 10311 10313 10314 10314 10315 10317 10318 10320 10321 10323 10323 10325 10328 10333 10338 10344 10350 10354 10359 10363 10364 10366 10369 10373 10378 10383 10388 10391 10394 10396 10399 10402 10406 10410 10414 10418 10423 10428 10433 10436 10439 10444
10369 10366 10363 10360 10357 10354 10352 10349 10346 10343 10339 10337 10336 10334 10333 10332 10331 10329 10328 10326 10324 10323 10321 10319 10318 10316 10314 10311 10306 10301 10296 10291 10289 10288 10289 10291 10291 10291 10290 10289 10289 10291 10294 10298 10301 10302 10303 10303 10304 10306 10308 10309 10311 10313 10314 10316 10318 10323 10328 10334 10339 10344 10349 10353 10355 10358 10361 10365 10369 10374 10378 10383 10386 10388 10391 10394 10398 10403 10407 10411 10416 10420 10425 10429 10433 10438
10361 10357 10354 10351 10349 10346 10342 10339 10336 10333 10330 10328 10326 10325 10324 10323 10322 10321 10319 10318 10315 10313 10311 10309 10308 10306 10304 10300 10295 10290 10285 10281 10278 10278 10279 10281 10281 10281 10279 10276 10277 10280 10284 10288 10289 10291 10291 10291 10293 10296 10298 10299 10301 10303 10304 10306 10309 10313 10318 10324 10329 10334 10339 10343 10344 10347 10351 10355 10360 10365 10370 10374 10378 10381 10383 10387 10391 10395 10399 10404 10408 10413 10418 10423 10427 10431
10351 10348 10344 10342 10339 10336 10333 10329 10326 10323 10321 10318 10316 10314 10313 10313 10312 10311 10309 10308 10305 10302 10300 10299 10298 10296 10293 10289 10284 10279 10275 10271 10268 10268 10269 10272 10273 10271 10268 10265 10266 10269 10274 10277 10278 10279 10279 10280 10282 10285 10287 10289 10291 10293 10294 10296 10299 10303 10308 10313 10319 10324 10329 10333 10335 10338 10341 10346 10351 10357 10361 10366 10369 10373 10376 10379 10383 10388 10392 10396 10401 10406 10411 10415 10419 10424
10342 10339 10335 10333 10329 10326 10323 10320 10316 10314 10311 10308 10306 10304 10303 10303 10301 10299 10298 10296 10293 10291 10289 10289 10288 10286 10283 10278 10273 10269 10265 10261 10258 10258 10260 10263 10263 10263 10259 10256 10256 10259 10264 10266 10267 10267 10268 10269 10271 10274 10277 10279 10281 10283 10284 10286 10289 10294 10298 10303 10309 10314 10319 10323 10326 10329 10332 10337 10343 10348 10353 10358 10362 10366 10369 10372 10376 10380 10384 10389 10394 10399 10403 10408 10413 10417
10331 10329 10326 10323 10319 10316 10313 10309 10306 10303 10301 10298 10296 10294 10293 10293 10291 10289 10287 10284 10282 10279 10279 10279 10278 10275 10272 10268 10264 10259 10255 10251 10248 10248 10249 10252 10253 10253 10252 10249 10248 10249 10253 10255 10256 10256 10256 10258 10261 10264 10266 10268 10270 10272 10274 10276 10279 10284 10288 10293 10299 10304 10309 10313 10317 10320 10324 10328 10333 10339 10344 10349 10354 10358 10361 10365 10369 10373 10378 10383 10387 10392 10396 10400 10404 10409
10322 10319 10316 10313 10309 10306 10303 10300 10296 10293 10291 10288 10286 10284 10283 10282 10281 10279 10277 10274 10271 10269 10269 10269 10268 10265 10261 10258 10254 10251 10246 10241 10238 10238 10238 10241 10243 10244 10244 10241 10239 10240 10242 10244 10244 10244 10246 10248 10250 10253 10255 10258 10259 10261 10264 10266 10269 10274 10278 10283 10289 10295 10300 10304 10308 10312 10316 10319 10324 10330 10336 10341 10346 10351 10354 10358 10362 10366 10371 10376 10380 10384 10389 10393 10398 10403
10314 10310 10307 10303 10300 10297 10294 10291 10287 10284 10281 10278 10275 10273 10272 10271 10270 10268 10266 10264 10261 10259 10259 10259 10258 10255 10253 10249 10246 10241 10236 10232 10229 10228 10228 10230 10233 10235 10236 10233 10230 10230 10231 10233 10233 10233 10234 10236 10239 10241 10244 10246 10249 10251 10253 10256 10259 10264 10268 10274 10279 10285 10291 10295 10299 10303 10306 10310 10315 10321 10328 10334 10339 10343 10348 10351 10354 10359 10364 10368 10373 10378 10382 10386 10391 10396
10305 10301 10298 10294 10291 10288 10284 10281 10278 10274 10271 10268 10265 10263 10261 10260 10259 10257 10255 10253 10251 10249 10249 10248 10246 10245 10244 10241 10238 10233 10228 10223 10219 10217 10218 10221 10224 10226 10226 10223 10221 10220 10221 10222 10223 10223 10224 10226 10228 10231 10233 10235 10238 10240 10243 10246 10250 10254 10259 10264 10270 10276 10281 10286 10290 10294 10297 10301 10307 10313 10319 10325 10331 10336 10340 10344 10348 10352 10357 10361 10366 10371 10375 10379 10384 10389
10297 10293 10289 10286 10282 10279 10276 10272 10269 10265 10261 10258 10254 10252 10250 10249 10248 10246 10244 10243 10241 10240 10239 10238 10236 10235 10234 10232 10229 10224 10219 10213 10209 10208 10209 10212 10215 10216 10214 10213 10211 10211 10211 10212 10212 10213 10214 10216 10218 10220 10222 10224 10227 10229 10233 10236 10240 10244 10249 10255 10261 10266 10271 10276 10281 10285 10289 10294 10299 10305 10311 10316 10322 10328 10332 10336 10341 10345 10349 10354 10359 10364 10368 10373 10377 10382
10289 10286 10281 10278 10274 10270 10267 10264 10260 10256 10253 10249 10245 10243 10240 10239 10237 10235 10234 10233 10232 10230 10229 10228 10227 10225 10223 10222 10219 10216 10210 10204 10199 10198 10200 10204 10206 10206 10204 10203 10201 10201 10202 10202 10203 10203 10205 10206 10208 10210 10212 10214 10217 10219 10223 10226 10231 10235 10240 10246 10251 10256 10262 10266 10271 10276 10280 10285 10291 10297 10303 10309 10314 10319 10324 10329 10334 10338 10343 10348 10353 10357 10361 10365 10369 10374
10282 10278 10274 10270 10266 10263 10259 10256 10252 10248 10244 10241 10237 10234 10231 10229 10227 10226 10224 10223 10222 10221 10219 10218 10217 10216 10213 10212 10210 10206 10202 10196 10191 10190 10192 10195 10196 10196 10195 10193 10192 10193 10193 10194 10194 10195 10196 10197 10199 10201 10203 10204 10208 10210 10214 10218 10221 10226 10231 10236 10242 10248 10253 10258 10262 10267 10271 10277 10283 10289 10296 10301 10307 10312 10317 10321 10326 10331 10336 10341 10346 10350 10354 10358 10363 10368
10275 10271 10267 10263 10259 10256 10252 10248 10244 10241 10237 10233 10229 10226 10223 10220 10218 10216 10215 10214 10213 10211 10210 10209 10208 10206 10204 10202 10200 10197 10193 10188 10184 10183 10184 10187 10188 10188 10186 10184 10183 10184 10184 10186 10187 10188 10188 10188 10189 10191 10194 10196 10199 10201 10205 10209 10213 10218 10223 10228 10234 10239 10244 10249 10253 10258 10263 10269 10275 10282 10288 10294 10300 10305 10310 10314 10319 10324 10329 10334 10338 10343 10347 10352 10357 10362
10269 10265 10261 10257 10253 10249 10245 10241 10238 10233 10229 10226 10223 10219 10215 10213 10210 10208 10206 10205 10203 10202 10201 10199 10198 10197 10195 10193 10190 10187 10183 10179 10177 10176 10178 10179 10179 10179 10178 10176 10175 10176 10176 10177 10179 10180 10180 10180 10181 10183 10186 10188 10191 10194 10197 10201 10205 10210 10215 10220 10226 10230 10235 10240 10246 10251 10256 10262 10268 10274 10281 10287 10293 10298 10303 10308 10313 10317 10322 10327 10332 10336 10341 10346 10351 10355
10263 10259 10254 10251 10247 10243 10239 10235 10231 10226 10223 10219 10216 10212 10209 10206 10203 10201 10199 10197 10195 10193 10192 10190 10189 10188 10186 10184 10181 10178 10174 10171 10169 10169 10171 10171 10171 10171 10170 10168 10168 10168 10168 10168 10170 10171 10172 10172 10173 10176 10178 10181 10183 10186 10189 10193 10198 10203 10208 10213 10218 10223 10228 10233 10238 10243 10249 10255 10261 10268 10274 10280 10286 10291 10296 10301 10306 10311 10316 10321 10325 10330 10334 10339 10344 10349
10257 10253 10248 10244 10241 10237 10233 10228 10224 10219 10216 10213 10209 10205 10202 10199 10196 10194 10192 10189 10188 10186 10184 10182 10181 10179 10177 10176 10173 10170 10168 10164 10163 10163 10163 10164 10164 10163 10162 10161 10160 10159 10160 10161 10162 10163 10164 10164 10166 10168 10171 10174 10176 10179 10182 10186 10190 10195 10200 10205 10210 10215 10220 10225 10231 10236 10243 10249 10255 10262 10268 10273 10279 10284 10289 10294 10299 10304 10309 10314 10319 10324 10328 10333 10338 10344
10251 10246 10242 10238 10234 10230 10226 10221 10217 10213 10209 10206 10203 10199 10196 10193 10191 10188 10185 10183 10180 10178 10176 10174 10173 10171 10169 10167 10165 10163 10161 10158 10156 10156 10156 10156 10157 10156 10155 10154 10153 10153 10153 10154 10155 10156 10157 10158 10159 10162 10164 10167 10169 10173 10176 10179 10183 10188 10193 10198 10203 10208 10213 10218 10224 10230 10236 10242 10249 10256 10261 10267 10272 10277 10281 10287 10292 10297 10303 10308 10313 10318 10322 10328 10333 10338
10244 10239 10236 10231 10228 10223 10219 10214 10210 10206 10203 10199 10196 10193 10189 10187 10184 10182 10179 10176 10173 10171 10169 10168 10166 10163 10161 10159 10158 10156 10154 10151 10150 10149 10149 10149 10149 10149 10148 10146 10146 10146 10147 10148 10149 10150 10151 10151 10153 10156 10159 10161 10163 10166 10169 10173 10178 10181 10186 10191 10196 10201 10206 10213 10218 10224 10230 10236 10243 10249 10254 10260 10265 10269 10274 10279 10285 10291 10296 10301 10306 10311 10316 10322 10327 10333
10237 10233 10229 10224 10221 10216 10212 10208 10204 10200 10196 10193 10190 10187 10184 10181 10179 10176 10173 10169 10167 10164 10163 10161 10159 10156 10154 10153 10151 10149 10147 10145 10144 10143 10143 10143 10143 10143 10141 10139 10139 10139 10141 10142 10143 10144 10145 10146 10148 10150 10153 10155 10158 10160 10163 10167 10171 10175 10180 10184 10189 10194 10199 10206 10212 10218 10225 10230 10236 10242 10247 10253 10258 10263 10268 10273 10279 10284 10290 10295 10300 10305 10310 10316 10322 10328
10229 10226 10222 10218 10214 10209 10205 10201 10198 10194 10191 10188 10184 10181 10178 10176 10173 10169 10166 10163 10161 10158 10156 10154 10152 10149 10148 10146 10144 10143 10141 10139 10138 10136 10136 10136 10136 10136 10135 10134 10133 10133 10134 10135 10136 10138 10139 10141 10143 10145 10148 10149 10152 10154 10158 10161 10165 10169 10174 10179 10184 10189 10194 10199 10205 10211 10217 10224 10229 10236 10241 10246 10251 10256 10262 10268 10273 10279 10284 10289 10294 10299 10306 10311 10316 10323
10222 10219 10215 10211 10207 10203 10198 10194 10191 10188 10184 10181 10178 10175 10173 10170 10167 10164 10161 10158 10154 10153 10150 10148 10146 10143 10141 10139 10138 10137 10136 10134 10133 10131 10130 10130 10130 10129 10129 10128 10128 10128 10128 10129 10131 10132 10133 10136 10138 10140 10143 10144 10146 10149 10152 10156 10160 10164 10169 10173 10178 10183 10188 10193 10199 10204 10211 10217 10224 10229 10234 10239 10244 10250 10256 10261 10266 10272 10277 10282 10288 10293 10299 10306 10313 10318
10215 10211 10208 10204 10200 10196 10192 10188 10184 10181 10179 10176 10173 10169 10167 10164 10161 10158 10155 10152 10149 10146 10144 10143 10140 10138 10135 10133 10132 10131 10130 10128 10127 10126 10125 10124 10124 10124 10123 10123 10122 10123 10123 10124 10125 10126 10128 10129 10132 10134 10137 10139 10141 10144 10148 10151 10155 10159 10163 10168 10172 10176 10181 10187 10193 10198 10204 10211 10218 10223 10228 10233 10238 10244 10251 10256 10260 10265 10271 10276 10282 10288 10293 10299 10306 10312
10208 10204 10201 10197 10193 10189 10185 10181 10178 10176 10173 10169 10166 10164 10161 10159 10156 10153 10149 10146 10143 10141 10139 10137 10135 10133 10130 10128 10126 10125 10124 10123 10121 10121 10119 10119 10118 10118 10118 10118 10117 10118 10119 10119 10120 10121 10122 10124 10126 10128 10131 10134 10137 10140 10143 10147 10151 10154 10158 10163 10167 10172 10177 10182 10188 10193 10199 10206 10212 10218 10222 10227 10233 10239 10246 10251 10256 10260 10266 10272 10278 10283 10289 10295 10300 10306
10202 10198 10194 10191 10186 10183 10178 10175 10173 10169 10166 10163 10161 10158 10155 10153 10150 10148 10144 10141 10138 10136 10134 10132 10129 10127 10125 10123 10121 10120 10119 10118 10116 10115 10114 10114 10113 10113 10113 10113 10113 10113 10114 10114 10115 10116 10117 10119 10121 10124 10126 10129 10132 10136 10139 10143 10146 10149 10154 10158 10163 10168 10173 10178 10183 10189 10194 10200 10206 10212 10216 10222 10229 10235 10241 10246 10251 10256 10262 10268 10273 10279 10286 10292 10298 10303
10196 10193 10188 10184 10180 10176 10173 10169 10166 10163 10161 10158 10154 10152 10149 10147 10144 10142 10139 10136 10133 10131 10129 10126 10124 10123 10120 10118 10116 10115 10114 10113 10112 10111 10109 10109 10108 10108 10108 10108 10108 10109 10109 10110 10111 10111 10113 10114 10117 10119 10122 10125 10128 10131 10134 10138 10141 10146 10149 10154 10158 10163 10167 10172 10178 10183 10189 10195 10201 10206 10211 10217 10224 10230 10236 10243 10248 10253 10258 10264 10271 10276 10282 10288 10293 10299
10190 10186 10183 10179 10174 10171 10167 10164 10161 10158 10155 10152 10149 10146 10143 10141 10139 10136 10134 10131 10129 10126 10124 10122 10120 10118 10116 10114 10112 10111 10109 10108 10107 10106 10105 10104 10104 10104 10103 10104 10104 10104 10106 10106 10106 10108 10109 10111 10113 10116 10118 10121 10124 10128 10131 10134 10138 10141 10146 10149 10153 10158 10163 10168 10173 10179 10184 10190 10196 10201 10206 10213 10220 10226 10233 10240 10245 10249 10254 10260 10266 10273 10279 10284 10290 10296
10184 10181 10177 10173 10169 10165 10161 10159 10156 10153 10149 10146 10143 10140 10138 10136 10134 10131 10129 10126 10124 10122 10119 10118 10116 10114 10111 10109 10108 10106 10105 10104 10103 10102 10101 10100 10100 10099 10099 10099 10100 10101 10101 10102 10103 10104 10106 10108 10109 10112 10115 10118 10121 10124 10127 10130 10134 10138 10141 10145 10149 10155 10161 10166 10171 10175 10180 10186 10192 10198 10204 10209 10216 10223 10229 10236 10241 10245 10249 10256 10262 10268 10275 10281 10288 10293
10178 10175 10171 10168 10164 10159 10156 10153 10151 10148 10144 10141 10138 10135 10133 10130 10128 10126 10124 10122 10119 10118 10115 10114 10112 10110 10108 10106 10104 10103 10101 10100 10099 10098 10097 10096 10096 10096 10096 10096 10096 10097 10098 10099 10099 10101 10103 10104 10107 10109 10113 10115 10118 10121 10124 10127 10130 10134 10137 10141 10146 10151 10156 10161 10166 10171 10177 10183 10189 10196 10201 10206 10213 10218 10225 10232 10236 10241 10246 10252 10258 10264 10271 10277 10283 10288
10172 10169 10165 10162 10158 10154 10151 10148 10146 10143 10139 10136 10133 10130 10128 10126 10124 10122 10119 10118 10116 10114 10111 10109 10108 10106 10104 10102 10101 10099 10098 10096 10095 10094 10093 10093 10093 10093 10093 10093 10093 10094 10094 10096 10096 10098 10099 10101 10104 10107 10109 10112 10114 10117 10120 10123 10127 10130 10134 10138 10143 10147 10152 10156 10162 10168 10174 10180 10188 10194 10199 10204 10209 10215 10222 10229 10234 10238 10244 10250 10256 10262 10268 10273 10279 10284
10166 10163 10159 10156 10153 10149 10146 10143 10141 10138 10134 10131 10128 10125 10123 10121 10119 10118 10115 10113 10112 10110 10108 10106 10104 10102 10100 10099 10097 10096 10094 10093 10092 10091 10090 10089 10089 10089 10089 10089 10090 10091 10091 10093 10094 10095 10097 10099 10101 10104 10106 10109 10111 10114 10117 10120 10123 10127 10131 10135 10140 10144 10149 10155 10160 10166 10172 10178 10184 10191 10196 10199 10204 10211 10220 10226 10231 10236 10241 10247 10253 10259 10264 10269 10274 10279
10160 10157 10154 10151 10148 10144 10141 10139 10136 10133 10129 10126 10123 10121 10118 10116 10115 10113 10111 10109 10108 10106 10104 10102 10100 10099 10097 10096 10094 10093 10091 10090 10089 10088 10087 10086 10086 10086 10086 10086 10087 10088 10089 10089 10091 10092 10094 10096 10098 10101 10103 10105 10108 10111 10114 10118 10121 10124 10129 10133 10138 10143 10148 10153 10158 10164 10169 10176 10181 10186 10191 10196 10202 10209 10218 10223 10228 10233 10239 10244 10250 10255 10261 10266 10271 10276
10155 10152 10149 10146 10143 10140 10137 10134 10131 10128 10125 10122 10119 10116 10114 10112 10110 10109 10108 10106 10104 10103 10101 10099 10097 10096 10094 10093 10091 10089 10088 10087 10086 10085 10084 10083 10083 10083 10083 10083 10084 10085 10086 10087 10088 10089 10091 10093 10094 10096 10099 10102 10105 10108 10111 10115 10118 10123 10127 10131 10136 10141 10146 10151 10156 10161 10167 10172 10177 10182 10187 10193 10201 10209 10216 10220 10224 10229 10236 10242 10247 10252 10258 10263 10268 10273
10150 10147 10144 10141 10138 10135 10133 10129 10126 10124 10121 10118 10115 10113 10110 10108 10106 10105 10104 10103 10101 10099 10098 10096 10094 10093 10091 10089 10088 10087 10086 10084 10083 10082 10081 10081 10081 10081 10081 10081 10081 10083 10083 10084 10086 10087 10088 10090 10091 10093 10096 10099 10102 10106 10109 10113 10116 10121 10125 10129 10134 10139 10144 10149 10154 10159 10164 10169 10174 10179 10185 10193 10201 10208 10213 10217 10222 10228 10233 10239 10243 10248 10255 10260 10265 10270